GAF320T EDDF-EHAM

Flight info

Callsign GAF320T
Flight time 0h 53m
Altitude 24000
Route MARUN8M/25C MARUN Y152 ARPEG/N0457F340 Z850 ABILU DCT NORKU NORK2A EHAM/36R
Aircraft A400/H-SDE3FGHIRWY/L4T

Departure

Time 2026-05-04 17:28
Airport Frankfurt Main Airport (EDDF)

Arrival

Time 2026-05-04 18:21
Airport Amsterdam Airport Schiphol (EHAM)
Time Latitude Longitude Altitude Speed Heading
2026-05-04 16:22 50.02945 8.56855 360 ft 0 kts 250°
2026-05-04 16:31 50.02945 8.56856 360 ft 0 kts 250°
2026-05-04 16:39 50.02945 8.56857 360 ft 0 kts 250°
2026-05-04 17:16 50.02947 8.56863 360 ft 3 kts 250°
2026-05-04 17:16 50.02965 8.56985 361 ft 4 kts 279°
2026-05-04 17:17 50.02956 8.57015 367 ft 2 kts 338°
2026-05-04 17:17 50.02955 8.57016 366 ft 0 kts 340°
2026-05-04 17:19 50.02954 8.57016 366 ft 0 kts 340°
2026-05-04 17:20 50.02955 8.57016 367 ft 0 kts 340°
2026-05-04 17:20 50.02983 8.57000 365 ft 6 kts 340°
2026-05-04 17:20 50.03030 8.56973 367 ft 8 kts 340°
2026-05-04 17:21 50.03112 8.56919 366 ft 1 kts 345°
2026-05-04 17:21 50.03131 8.56911 367 ft 4 kts 344°
2026-05-04 17:22 50.03171 8.56890 369 ft 7 kts 339°
2026-05-04 17:22 50.03215 8.56865 365 ft 7 kts 341°
2026-05-04 17:23 50.03346 8.57085 364 ft 16 kts 67°
2026-05-04 17:23 50.03388 8.57262 367 ft 18 kts 73°
2026-05-04 17:23 50.03489 8.57678 366 ft 22 kts 70°
2026-05-04 17:24 50.03542 8.57908 373 ft 23 kts 70°
2026-05-04 17:24 50.03760 8.58017 374 ft 10 kts 339°
2026-05-04 17:25 50.03811 8.57987 376 ft 7 kts 339°
2026-05-04 17:25 50.03914 8.57929 376 ft 7 kts 339°
2026-05-04 17:26 50.04021 8.57869 378 ft 9 kts 340°
2026-05-04 17:26 50.04218 8.57753 374 ft 17 kts 339°
2026-05-04 17:27 50.04246 8.57583 373 ft 0 kts 248°
2026-05-04 17:27 50.03950 8.56331 398 ft 164 kts 252°
2026-05-04 17:28 50.02976 8.52350 1814 ft 224 kts 251°
2026-05-04 17:29 49.99340 8.48473 6610 ft 211 kts 196°
2026-05-04 17:29 49.94655 8.46397 6706 ft 262 kts 196°
2026-05-04 17:30 49.90693 8.40542 7678 ft 301 kts 267°
2026-05-04 17:31 49.92837 8.35243 10538 ft 306 kts 326°
2026-05-04 17:31 49.99151 8.31226 12794 ft 343 kts 336°
2026-05-04 17:32 50.03671 8.28816 12956 ft 349 kts 348°
2026-05-04 17:33 50.10824 8.30803 12955 ft 354 kts 18°
2026-05-04 17:33 50.13195 8.32075 13082 ft 360 kts 18°
2026-05-04 17:34 50.20342 8.35880 15690 ft 366 kts 18°
2026-05-04 17:34 50.22768 8.37160 16454 ft 370 kts 18°
2026-05-04 17:35 50.30186 8.41092 16975 ft 377 kts 18°
2026-05-04 17:35 50.35139 8.43788 16985 ft 376 kts 18°
2026-05-04 17:35 50.37605 8.45134 16986 ft 376 kts 18°
2026-05-04 17:36 50.40076 8.46484 16987 ft 376 kts 18°
2026-05-04 17:36 50.42544 8.47834 16984 ft 376 kts 18°
2026-05-04 17:36 50.45012 8.49185 16985 ft 375 kts 18°
2026-05-04 17:36 50.47482 8.50508 16984 ft 375 kts 17°
2026-05-04 17:37 50.49972 8.51730 16986 ft 375 kts 16°
2026-05-04 17:37 50.52469 8.52923 16985 ft 375 kts 16°
2026-05-04 17:37 50.54954 8.54107 17050 ft 379 kts 16°
2026-05-04 17:37 50.56259 8.54730 17328 ft 384 kts 16°
2026-05-04 17:42 50.57219 8.55176 17651 ft 383 kts 15°
2026-05-04 17:42 50.59835 8.55886 18594 ft 381 kts
2026-05-04 17:43 50.62471 8.55611 19395 ft 380 kts 348°
2026-05-04 17:43 50.65041 8.54628 20181 ft 381 kts 341°
2026-05-04 17:43 50.67550 8.53241 20952 ft 384 kts 336°
2026-05-04 17:43 50.70030 8.51634 21715 ft 387 kts 334°
2026-05-04 17:44 50.72506 8.49934 22439 ft 391 kts 334°
2026-05-04 17:44 50.75012 8.48202 23156 ft 395 kts 334°
2026-05-04 17:44 50.77544 8.46479 23708 ft 397 kts 334°
2026-05-04 17:44 50.80110 8.44765 23946 ft 402 kts 334°
2026-05-04 17:45 50.82697 8.43067 23984 ft 403 kts 335°
2026-05-04 17:45 50.85235 8.41418 23988 ft 403 kts 335°
2026-05-04 17:45 50.87831 8.39739 23987 ft 403 kts 335°
2026-05-04 17:45 50.90432 8.38058 23984 ft 403 kts 335°
2026-05-04 17:46 50.93031 8.36378 23987 ft 403 kts 335°
2026-05-04 17:46 50.95626 8.34695 23985 ft 403 kts 334°
2026-05-04 17:46 50.98220 8.32984 23987 ft 403 kts 333°
2026-05-04 17:46 51.00792 8.31234 23991 ft 402 kts 330°
2026-05-04 17:47 51.03264 8.29193 23991 ft 401 kts 328°
2026-05-04 17:47 51.05714 8.27092 23996 ft 400 kts 327°
2026-05-04 17:47 51.08151 8.24939 23992 ft 400 kts 327°
2026-05-04 17:47 51.09885 8.23387 23990 ft 400 kts 326°
2026-05-04 17:48 51.12310 8.21208 23987 ft 400 kts 326°
2026-05-04 17:48 51.14703 8.19056 23987 ft 400 kts 326°
2026-05-04 17:48 51.17130 8.16877 23987 ft 400 kts 326°
2026-05-04 17:48 51.19587 8.14674 23990 ft 400 kts 327°
2026-05-04 17:49 51.21985 8.12526 23991 ft 400 kts 327°
2026-05-04 17:49 51.24441 8.10325 24000 ft 400 kts 327°
2026-05-04 17:49 51.26836 8.08178 23989 ft 400 kts 327°
2026-05-04 17:49 51.29261 8.05999 23989 ft 400 kts 327°
2026-05-04 17:50 51.31684 8.03821 23989 ft 400 kts 327°
2026-05-04 17:50 51.34112 8.01634 23989 ft 400 kts 327°
2026-05-04 17:50 51.36544 7.99442 23989 ft 401 kts 327°
2026-05-04 17:50 51.38974 7.97250 23991 ft 401 kts 327°
2026-05-04 17:51 51.41313 7.94867 23991 ft 398 kts 321°
2026-05-04 17:51 51.43568 7.92295 23992 ft 398 kts 320°
2026-05-04 17:51 51.45802 7.89683 23989 ft 397 kts 320°
2026-05-04 17:51 51.48024 7.87056 23991 ft 397 kts 320°
2026-05-04 17:52 51.50244 7.84420 23991 ft 397 kts 319°
2026-05-04 17:52 51.52467 7.81772 23991 ft 397 kts 319°
2026-05-04 17:52 51.54684 7.79126 23991 ft 397 kts 319°
2026-05-04 17:52 51.56903 7.76472 23995 ft 398 kts 319°
2026-05-04 17:53 51.59131 7.73804 23993 ft 399 kts 319°
2026-05-04 17:53 51.61361 7.71130 23994 ft 400 kts 320°
2026-05-04 17:53 51.63599 7.68443 23992 ft 401 kts 320°
2026-05-04 17:53 51.65834 7.65756 23991 ft 401 kts 320°
2026-05-04 17:54 51.68070 7.63065 23991 ft 401 kts 319°
2026-05-04 17:54 51.70300 7.60365 23990 ft 401 kts 318°
2026-05-04 17:54 51.71685 7.58408 23989 ft 398 kts 311°
2026-05-04 17:54 51.73462 7.55051 23987 ft 394 kts 303°
2026-05-04 17:55 51.75047 7.51453 23992 ft 393 kts 301°
2026-05-04 17:55 51.76575 7.47788 23976 ft 392 kts 300°
2026-05-04 17:55 51.78081 7.44108 23983 ft 392 kts 300°
2026-05-04 17:55 51.79577 7.40425 23981 ft 392 kts 299°
2026-05-04 17:56 51.81069 7.36738 23983 ft 392 kts 299°
2026-05-04 17:56 51.82560 7.33044 23986 ft 392 kts 299°
2026-05-04 17:56 51.84052 7.29338 23988 ft 393 kts 299°
2026-05-04 17:56 51.85541 7.25635 23982 ft 393 kts 299°
2026-05-04 17:57 51.87033 7.21921 23987 ft 393 kts 299°
2026-05-04 17:57 51.88521 7.18209 23974 ft 393 kts 299°
2026-05-04 17:57 51.90009 7.14490 23985 ft 393 kts 299°
2026-05-04 17:57 51.91493 7.10776 23987 ft 393 kts 299°
2026-05-04 17:58 51.92979 7.07052 23984 ft 393 kts 299°
2026-05-04 17:58 51.94462 7.03332 23982 ft 393 kts 299°
2026-05-04 17:58 51.95943 6.99610 23977 ft 393 kts 299°
2026-05-04 17:58 51.97426 6.95878 23985 ft 393 kts 299°
2026-05-04 17:59 51.98883 6.92204 23975 ft 393 kts 299°
2026-05-04 17:59 52.00365 6.88465 23982 ft 393 kts 299°
2026-05-04 17:59 52.03324 6.80979 23972 ft 395 kts 300°
2026-05-04 18:00 52.04806 6.77220 23977 ft 396 kts 300°
2026-05-04 18:00 52.06289 6.73455 23973 ft 396 kts 300°
2026-05-04 18:00 52.07773 6.69683 23975 ft 396 kts 299°
2026-05-04 18:00 52.09254 6.65911 23975 ft 396 kts 299°
2026-05-04 18:01 52.10736 6.62131 23892 ft 397 kts 300°
2026-05-04 18:01 52.12222 6.58338 23666 ft 397 kts 300°
2026-05-04 18:01 52.13703 6.54549 23413 ft 396 kts 300°
2026-05-04 18:02 52.16639 6.47026 22765 ft 392 kts 300°
2026-05-04 18:02 52.18095 6.43285 22191 ft 388 kts 300°
2026-05-04 18:02 52.19533 6.39586 21600 ft 384 kts 300°
2026-05-04 18:02 52.20951 6.35935 21048 ft 379 kts 300°
2026-05-04 18:03 52.22354 6.32314 20488 ft 375 kts 301°
2026-05-04 18:03 52.23740 6.28732 19933 ft 372 kts 301°
2026-05-04 18:03 52.25110 6.25186 19381 ft 367 kts 301°
2026-05-04 18:03 52.26464 6.21676 18823 ft 363 kts 301°
2026-05-04 18:04 52.27803 6.18201 18271 ft 359 kts 301°
2026-05-04 18:04 52.29124 6.14769 17668 ft 355 kts 301°
2026-05-04 18:04 52.31728 6.07988 16584 ft 350 kts 301°
2026-05-04 18:05 52.33017 6.04625 16044 ft 347 kts 301°
2026-05-04 18:05 52.34294 6.01292 15512 ft 344 kts 301°
2026-05-04 18:05 52.35559 5.97983 14978 ft 342 kts 301°
2026-05-04 18:05 52.36813 5.94699 14463 ft 339 kts 301°
2026-05-04 18:06 52.39273 5.88245 13365 ft 330 kts 300°
2026-05-04 18:06 52.40482 5.85066 12839 ft 328 kts 300°
2026-05-04 18:06 52.41680 5.81915 12326 ft 325 kts 300°
2026-05-04 18:07 52.42871 5.78776 11801 ft 323 kts 300°
2026-05-04 18:07 52.44051 5.75662 11292 ft 321 kts 300°
2026-05-04 18:07 52.45203 5.72618 11042 ft 304 kts 300°
2026-05-04 18:07 52.46276 5.69788 11001 ft 283 kts 300°
2026-05-04 18:08 52.47313 5.67031 10810 ft 283 kts 300°
2026-05-04 18:08 52.48364 5.64245 10353 ft 290 kts 300°
2026-05-04 18:08 52.49399 5.61449 9922 ft 285 kts 297°
2026-05-04 18:08 52.50070 5.58477 9643 ft 282 kts 279°
2026-05-04 18:09 52.49194 5.52428 9066 ft 278 kts 238°
2026-05-04 18:09 52.46970 5.47282 8460 ft 276 kts 234°
2026-05-04 18:10 52.45838 5.44745 8158 ft 276 kts 234°
2026-05-04 18:10 52.44712 5.42210 7852 ft 273 kts 234°
2026-05-04 18:10 52.43599 5.39691 7561 ft 273 kts 235°
2026-05-04 18:10 52.42490 5.37176 7310 ft 276 kts 234°
2026-05-04 18:11 52.41376 5.34651 6995 ft 272 kts 235°
2026-05-04 18:11 52.40273 5.32143 6681 ft 270 kts 234°
2026-05-04 18:11 52.39169 5.29635 6392 ft 272 kts 234°
2026-05-04 18:11 52.38062 5.27124 6083 ft 272 kts 234°
2026-05-04 18:12 52.36955 5.24615 5788 ft 271 kts 235°
2026-05-04 18:12 52.35851 5.22115 5486 ft 270 kts 235°
2026-05-04 18:12 52.34749 5.19619 5210 ft 270 kts 235°
2026-05-04 18:12 52.33651 5.17138 4925 ft 269 kts 234°
2026-05-04 18:13 52.32555 5.14663 4643 ft 268 kts 235°
2026-05-04 18:13 52.31459 5.12190 4333 ft 268 kts 234°
2026-05-04 18:13 52.29274 5.07266 3764 ft 267 kts 235°
2026-05-04 18:14 52.28186 5.04818 3474 ft 267 kts 234°
2026-05-04 18:14 52.27097 5.02370 3183 ft 265 kts 234°
2026-05-04 18:14 52.26016 4.99943 3004 ft 264 kts 236°
2026-05-04 18:15 52.23850 4.95087 2994 ft 265 kts 235°
2026-05-04 18:15 52.21726 4.90332 2181 ft 257 kts 235°
2026-05-04 18:15 52.20692 4.88024 2011 ft 246 kts 235°
2026-05-04 18:16 52.19724 4.85865 1992 ft 223 kts 236°
2026-05-04 18:16 52.18856 4.83933 2011 ft 199 kts 236°
2026-05-04 18:16 52.18084 4.82213 2018 ft 176 kts 235°
2026-05-04 18:17 52.17172 4.79035 2014 ft 139 kts 279°
2026-05-04 18:17 52.17533 4.77757 2008 ft 118 kts 331°
2026-05-04 18:17 52.19065 4.77044 1990 ft 117 kts 358°
2026-05-04 18:18 52.19861 4.77011 1942 ft 115 kts
2026-05-04 18:18 52.20663 4.77036 1942 ft 114 kts
2026-05-04 18:18 52.21466 4.77016 1761 ft 115 kts
2026-05-04 18:18 52.22253 4.77070 1592 ft 113 kts
2026-05-04 18:19 52.23822 4.77275 1260 ft 111 kts
2026-05-04 18:19 52.24606 4.77315 1003 ft 111 kts
2026-05-04 18:19 52.25389 4.77389 823 ft 115 kts
2026-05-04 18:20 52.26196 4.77473 650 ft 113 kts
2026-05-04 18:20 52.26979 4.77539 469 ft 110 kts
2026-05-04 18:20 52.27744 4.77608 321 ft 110 kts
2026-05-04 18:20 52.28528 4.77658 185 ft 128 kts
2026-05-04 18:21 52.29291 4.77771 36 ft 102 kts
2026-05-04 18:21 52.30095 4.77820 13 ft 101 kts
2026-05-04 18:21 52.30587 4.77874 9 ft 42 kts
2026-05-04 18:21 52.30736 4.77884 6 ft 10 kts
2026-05-04 18:22 52.30802 4.77886 6 ft 9 kts 356°
2026-05-04 18:22 52.30861 4.77869 6 ft 8 kts 342°
2026-05-04 18:22 52.30906 4.77841 6 ft 7 kts 339°
2026-05-04 18:22 52.30957 4.77806 7 ft 9 kts 334°
2026-05-04 18:23 52.31022 4.77753 8 ft 12 kts 334°
2026-05-04 18:23 52.31100 4.77687 9 ft 14 kts 332°
2026-05-04 18:23 52.31152 4.77591 8 ft 9 kts 269°
2026-05-04 18:23 52.31110 4.77493 8 ft 14 kts 198°
2026-05-04 18:24 52.31071 4.77369 8 ft 8 kts 285°
2026-05-04 18:24 52.31117 4.77324 8 ft 7 kts 354°
2026-05-04 18:24 52.31160 4.77327 8 ft 0 kts